{"data":{"norad_id":57875,"intl_designator":"2023-144M","name":"STARLINK-30434","alt_names":[],"object_type":"PAYLOAD","status":"ACTIVE","operator":null,"country":"US","launch_date":"2023-09-16","launch_site_code":"AFETR","launch_vehicle":null,"mission":null,"orbit_class":"UNKNOWN","rcs_meters":null,"size_class":null,"mass_kg":null,"dimensions":null,"purposes":["comms"],"wikipedia_slug":null,"has_3d_model":false,"image_url":null,"decayed_at":null,"tle_current":{"epoch":"2026-05-25T04:26:39.189120Z","epoch_age_seconds":56144,"freshness":"FRESH","line1":"1 57875U 23144M   26145.18517580  .00002610  00000+0  10435-3 0  9993","line2":"2 57875  43.0027 213.4369 0002052 280.9023  79.1597 15.27576211149347","mean_motion":15.27576211,"eccentricity":0.0002052,"inclination_deg":43.0027,"raan_deg":213.4369,"arg_perigee_deg":280.9023,"mean_anomaly_deg":79.1597,"bstar":0.00010435,"rev_number":14934,"period_min":94.266982532893,"perigee_km":481.65252397716,"apogee_km":484.46835940722,"semimajor_km":6861.1974416922,"source":"CELESTRAK","updated_at":"2026-05-25T13:38:18.448911Z"}}}